IRA409 OITL-OIII

Flight info

Callsign IRA409
Flight time 0h 48m
Altitude 29000
Route GIVTA A416 RST Z725 PAXID
Aircraft B738/M-SDE2E3FGHIRWXY/LB1

Departure

Time 2026-05-07 21:06
Airport Ardabil Airport (OITL)

Arrival

Time 2026-05-07 21:55
Airport Mehrabad International Airport (OIII)
Time Latitude Longitude Altitude Speed Heading
2026-05-07 20:51 38.32707 48.42572 4312 ft 0 kts 334°
2026-05-07 20:57 38.32705 48.42574 4310 ft 3 kts 334°
2026-05-07 20:57 38.32681 48.42590 4313 ft 4 kts 324°
2026-05-07 20:57 38.32661 48.42612 4310 ft 4 kts 304°
2026-05-07 20:58 38.32653 48.42640 4311 ft 4 kts 251°
2026-05-07 20:58 38.32657 48.42651 4310 ft 1 kts 240°
2026-05-07 21:01 38.32655 48.42647 4311 ft 2 kts 240°
2026-05-07 21:01 38.32638 48.42607 4312 ft 8 kts 240°
2026-05-07 21:01 38.32595 48.42536 4312 ft 12 kts 212°
2026-05-07 21:01 38.32516 48.42571 4313 ft 14 kts 149°
2026-05-07 21:02 38.32420 48.42642 4313 ft 17 kts 147°
2026-05-07 21:02 38.32305 48.42729 4315 ft 21 kts 150°
2026-05-07 21:02 38.32170 48.42827 4316 ft 24 kts 150°
2026-05-07 21:02 38.32016 48.42940 4317 ft 27 kts 150°
2026-05-07 21:03 38.31847 48.43063 4316 ft 30 kts 150°
2026-05-07 21:03 38.31663 48.43204 4315 ft 32 kts 147°
2026-05-07 21:03 38.31465 48.43357 4318 ft 34 kts 150°
2026-05-07 21:03 38.31309 48.43395 4319 ft 17 kts 249°
2026-05-07 21:04 38.31334 48.43314 4320 ft 1 kts 332°
2026-05-07 21:05 38.31403 48.43268 4321 ft 24 kts 332°
2026-05-07 21:05 38.31661 48.43081 4319 ft 70 kts 330°
2026-05-07 21:05 38.32277 48.42628 4318 ft 133 kts 330°
2026-05-07 21:06 38.33221 48.41935 4415 ft 172 kts 328°
2026-05-07 21:06 38.34046 48.41112 4658 ft 198 kts 316°
2026-05-07 21:06 38.35128 48.39861 5003 ft 216 kts 325°
2026-05-07 21:06 38.36515 48.38880 5220 ft 239 kts 335°
2026-05-07 21:07 38.38075 48.37940 5541 ft 257 kts 335°
2026-05-07 21:07 38.39733 48.36897 5896 ft 274 kts 334°
2026-05-07 21:07 38.41491 48.35764 6344 ft 289 kts 332°
2026-05-07 21:07 38.42844 48.34377 7269 ft 283 kts 306°
2026-05-07 21:08 38.43530 48.32164 8223 ft 281 kts 276°
2026-05-07 21:08 38.43350 48.29691 9077 ft 284 kts 251°
2026-05-07 21:08 38.42415 48.27522 9811 ft 286 kts 228°
2026-05-07 21:08 38.40814 48.25981 10575 ft 287 kts 202°
2026-05-07 21:09 38.38892 48.25473 11515 ft 283 kts 179°
2026-05-07 21:09 38.36989 48.26056 12409 ft 285 kts 155°
2026-05-07 21:09 38.35442 48.27651 13246 ft 294 kts 132°
2026-05-07 21:09 38.34455 48.29981 14007 ft 306 kts 115°
2026-05-07 21:10 38.33846 48.32616 14616 ft 315 kts 110°
2026-05-07 21:10 38.33299 48.35357 15191 ft 322 kts 110°
2026-05-07 21:10 38.32725 48.38137 15809 ft 327 kts 111°
2026-05-07 21:10 38.32130 48.40902 16416 ft 332 kts 111°
2026-05-07 21:11 38.31260 48.43668 16974 ft 328 kts 131°
2026-05-07 21:11 38.29779 48.45774 17602 ft 324 kts 143°
2026-05-07 21:11 38.26449 48.49736 18805 ft 332 kts 144°
2026-05-07 21:12 38.24748 48.51736 19406 ft 335 kts 145°
2026-05-07 21:12 38.23034 48.53762 20009 ft 337 kts 145°
2026-05-07 21:12 38.21314 48.55806 20595 ft 340 kts 145°
2026-05-07 21:12 38.19580 48.57874 21179 ft 344 kts 145°
2026-05-07 21:13 38.17828 48.59968 21734 ft 347 kts 146°
2026-05-07 21:13 38.16065 48.62078 22292 ft 350 kts 146°
2026-05-07 21:13 38.14287 48.64205 22856 ft 353 kts 146°
2026-05-07 21:13 38.12490 48.66355 23430 ft 356 kts 146°
2026-05-07 21:14 38.10685 48.68512 23876 ft 357 kts 146°
2026-05-07 21:14 38.08874 48.70688 24283 ft 361 kts 146°
2026-05-07 21:14 38.07039 48.72877 24744 ft 363 kts 146°
2026-05-07 21:14 38.05189 48.75080 25195 ft 365 kts 146°
2026-05-07 21:15 38.03337 48.77286 25707 ft 366 kts 146°
2026-05-07 21:15 38.01483 48.79494 26177 ft 367 kts 145°
2026-05-07 21:15 37.99614 48.81716 26596 ft 369 kts 145°
2026-05-07 21:15 37.97742 48.83937 27115 ft 368 kts 146°
2026-05-07 21:16 37.95879 48.86148 27655 ft 366 kts 145°
2026-05-07 21:16 37.94020 48.88354 28166 ft 366 kts 146°
2026-05-07 21:16 37.92142 48.90576 28357 ft 375 kts 146°
2026-05-07 21:16 37.90206 48.92854 28465 ft 386 kts 146°
2026-05-07 21:17 37.88215 48.95198 28568 ft 396 kts 145°
2026-05-07 21:17 37.86169 48.97612 28662 ft 407 kts 145°
2026-05-07 21:17 37.84073 49.00086 28767 ft 417 kts 145°
2026-05-07 21:17 37.81930 49.02618 28857 ft 427 kts 144°
2026-05-07 21:18 37.77498 49.07850 29021 ft 444 kts 145°
2026-05-07 21:18 37.72923 49.13246 29131 ft 456 kts 144°
2026-05-07 21:19 37.68223 49.18773 29135 ft 465 kts 144°
2026-05-07 21:19 37.63551 49.24394 29126 ft 463 kts 144°
2026-05-07 21:20 37.58941 49.29986 29130 ft 462 kts 144°
2026-05-07 21:20 37.54270 49.35626 29112 ft 461 kts 144°
2026-05-07 21:21 37.49631 49.41206 29129 ft 461 kts 144°
2026-05-07 21:21 37.45027 49.46730 29133 ft 460 kts 144°
2026-05-07 21:22 37.40390 49.52285 29134 ft 460 kts 144°
2026-05-07 21:22 37.35747 49.57840 29132 ft 461 kts 144°
2026-05-07 21:23 37.31060 49.63310 29134 ft 458 kts 147°
2026-05-07 21:23 37.26158 49.68365 29130 ft 455 kts 150°
2026-05-07 21:24 37.21215 49.73334 29134 ft 456 kts 150°
2026-05-07 21:24 37.16288 49.78345 29121 ft 456 kts 150°
2026-05-07 21:25 37.11365 49.83383 29128 ft 457 kts 150°
2026-05-07 21:25 37.06444 49.88414 29144 ft 457 kts 150°
2026-05-07 21:26 37.01512 49.93456 29129 ft 457 kts 150°
2026-05-07 21:26 36.96584 49.98471 29117 ft 456 kts 150°
2026-05-07 21:27 36.91342 50.02624 29121 ft 436 kts 167°
2026-05-07 21:27 36.85718 50.05395 29094 ft 434 kts 168°
2026-05-07 21:28 36.80110 50.08149 29114 ft 432 kts 168°
2026-05-07 21:28 36.74529 50.10933 29063 ft 431 kts 167°
2026-05-07 21:29 36.68981 50.13708 29082 ft 428 kts 167°
2026-05-07 21:29 36.63464 50.16441 29085 ft 426 kts 168°
2026-05-07 21:30 36.57970 50.19182 29055 ft 425 kts 167°
2026-05-07 21:30 36.52467 50.21941 28715 ft 431 kts 168°
2026-05-07 21:31 36.49681 50.23330 28255 ft 432 kts 167°
2026-05-07 21:31 36.46928 50.24701 27727 ft 433 kts 167°
2026-05-07 21:31 36.44118 50.26097 27238 ft 437 kts 167°
2026-05-07 21:31 36.41289 50.27503 26708 ft 440 kts 166°
2026-05-07 21:32 36.38442 50.28918 26223 ft 441 kts 166°
2026-05-07 21:32 36.35584 50.30337 25737 ft 443 kts 166°
2026-05-07 21:32 36.32719 50.31759 25273 ft 444 kts 166°
2026-05-07 21:32 36.29850 50.33182 24799 ft 443 kts 165°
2026-05-07 21:33 36.27028 50.34656 24292 ft 440 kts 161°
2026-05-07 21:33 36.24315 50.36399 23841 ft 440 kts 158°
2026-05-07 21:33 36.21649 50.38273 23338 ft 441 kts 156°
2026-05-07 21:33 36.18996 50.40176 22808 ft 440 kts 156°
2026-05-07 21:34 36.16348 50.42059 22290 ft 438 kts 157°
2026-05-07 21:34 36.13703 50.43908 21794 ft 436 kts 157°
2026-05-07 21:34 36.11062 50.45729 21248 ft 433 kts 157°
2026-05-07 21:34 36.08431 50.47526 20748 ft 430 kts 157°
2026-05-07 21:35 36.05811 50.49307 20252 ft 427 kts 157°
2026-05-07 21:35 36.03215 50.51068 19766 ft 424 kts 157°
2026-05-07 21:35 36.00637 50.52816 19300 ft 422 kts 157°
2026-05-07 21:35 35.98075 50.54553 18826 ft 419 kts 157°
2026-05-07 21:36 35.95530 50.56278 18359 ft 416 kts 157°
2026-05-07 21:36 35.93036 50.57968 17839 ft 412 kts 157°
2026-05-07 21:36 35.90540 50.59658 17360 ft 404 kts 157°
2026-05-07 21:36 35.88135 50.61291 16968 ft 386 kts 157°
2026-05-07 21:37 35.85831 50.62849 16570 ft 370 kts 158°
2026-05-07 21:37 35.83622 50.64340 16185 ft 356 kts 158°
2026-05-07 21:37 35.81484 50.65780 15785 ft 344 kts 158°
2026-05-07 21:37 35.79420 50.67171 15413 ft 334 kts 158°
2026-05-07 21:38 35.77531 50.68811 15020 ft 337 kts 139°
2026-05-07 21:38 35.76276 50.71257 14674 ft 341 kts 116°
2026-05-07 21:38 35.75754 50.74106 14330 ft 341 kts 101°
2026-05-07 21:38 35.75494 50.76980 13991 ft 335 kts 100°
2026-05-07 21:39 35.75252 50.79807 13614 ft 330 kts 101°
2026-05-07 21:39 35.74993 50.82587 13221 ft 324 kts 101°
2026-05-07 21:39 35.74725 50.85325 12842 ft 320 kts 101°
2026-05-07 21:39 35.74362 50.87989 12440 ft 310 kts 113°
2026-05-07 21:40 35.73410 50.90299 12093 ft 299 kts 124°
2026-05-07 21:40 35.72374 50.92494 11700 ft 294 kts 124°
2026-05-07 21:40 35.71351 50.94654 11335 ft 290 kts 124°
2026-05-07 21:40 35.70343 50.96792 10961 ft 287 kts 124°
2026-05-07 21:41 35.69351 50.98902 10617 ft 283 kts 124°
2026-05-07 21:41 35.68373 51.00989 10267 ft 280 kts 123°
2026-05-07 21:41 35.67417 51.03035 10086 ft 269 kts 123°
2026-05-07 21:41 35.66499 51.05003 10065 ft 263 kts 123°
2026-05-07 21:42 35.65588 51.06953 10060 ft 263 kts 123°
2026-05-07 21:42 35.64673 51.08911 10064 ft 264 kts 123°
2026-05-07 21:42 35.63754 51.10876 10035 ft 266 kts 123°
2026-05-07 21:42 35.62832 51.12850 9975 ft 266 kts 123°
2026-05-07 21:43 35.61915 51.14813 9906 ft 264 kts 123°
2026-05-07 21:43 35.61000 51.16772 9843 ft 265 kts 123°
2026-05-07 21:43 35.60077 51.18744 9771 ft 266 kts 123°
2026-05-07 21:43 35.59150 51.20726 9679 ft 269 kts 123°
2026-05-07 21:44 35.58218 51.22718 9576 ft 267 kts 123°
2026-05-07 21:44 35.57308 51.24666 9440 ft 257 kts 123°
2026-05-07 21:44 35.56728 51.25907 9357 ft 250 kts 123°
2026-05-07 21:44 35.55882 51.27714 9235 ft 240 kts 123°
2026-05-07 21:45 35.55060 51.29469 9123 ft 234 kts 123°
2026-05-07 21:45 35.54253 51.31186 9066 ft 232 kts 123°
2026-05-07 21:45 35.53433 51.32929 8988 ft 238 kts 123°
2026-05-07 21:45 35.52620 51.34660 8868 ft 230 kts 123°
2026-05-07 21:46 35.51841 51.36319 8771 ft 219 kts 123°
2026-05-07 21:46 35.51272 51.38012 8647 ft 215 kts 102°
2026-05-07 21:46 35.51034 51.39833 8568 ft 218 kts 102°
2026-05-07 21:46 35.50766 51.41679 8484 ft 221 kts 103°
2026-05-07 21:47 35.50482 51.43535 8373 ft 221 kts 103°
2026-05-07 21:47 35.50195 51.45371 8229 ft 215 kts 102°
2026-05-07 21:47 35.50261 51.47157 8057 ft 209 kts 71°
2026-05-07 21:47 35.50916 51.48716 7970 ft 204 kts 57°
2026-05-07 21:48 35.51807 51.50080 7833 ft 205 kts 43°
2026-05-07 21:48 35.52868 51.51200 7678 ft 198 kts 36°
2026-05-07 21:48 35.53962 51.52199 7519 ft 194 kts 34°
2026-05-07 21:48 35.55063 51.53209 7455 ft 211 kts 35°
2026-05-07 21:49 35.56324 51.54304 7541 ft 228 kts 31°
2026-05-07 21:49 35.57682 51.55238 7506 ft 218 kts 24°
2026-05-07 21:49 35.59010 51.55984 7410 ft 202 kts 15°
2026-05-07 21:49 35.60326 51.56058 7273 ft 181 kts 341°
2026-05-07 21:50 35.61384 51.55380 7085 ft 166 kts 314°
2026-05-07 21:50 35.61954 51.54251 6983 ft 155 kts 294°
2026-05-07 21:50 35.62426 51.53047 6840 ft 154 kts 293°
2026-05-07 21:50 35.62834 51.51856 6679 ft 150 kts 290°
2026-05-07 21:51 35.63207 51.50656 6559 ft 149 kts 289°
2026-05-07 21:51 35.63556 51.49484 6495 ft 143 kts 289°
2026-05-07 21:51 35.63892 51.48335 6464 ft 145 kts 289°
2026-05-07 21:51 35.64231 51.47168 6296 ft 146 kts 290°
2026-05-07 21:52 35.64570 51.46003 6083 ft 144 kts 290°
2026-05-07 21:52 35.64905 51.44848 5895 ft 145 kts 290°
2026-05-07 21:52 35.65247 51.43671 5687 ft 146 kts 290°
2026-05-07 21:52 35.65583 51.42515 5482 ft 142 kts 290°
2026-05-07 21:53 35.65918 51.41359 5281 ft 145 kts 290°
2026-05-07 21:53 35.66258 51.40190 5078 ft 145 kts 291°
2026-05-07 21:53 35.66595 51.39031 4868 ft 144 kts 292°
2026-05-07 21:53 35.66932 51.37872 4663 ft 144 kts 291°
2026-05-07 21:54 35.67271 51.36710 4459 ft 144 kts 291°
2026-05-07 21:54 35.67608 51.35550 4241 ft 143 kts 291°
2026-05-07 21:54 35.67937 51.34417 4036 ft 139 kts 290°
2026-05-07 21:54 35.68261 51.33307 3839 ft 138 kts 290°
2026-05-07 21:55 35.68564 51.32284 3838 ft 106 kts 290°
2026-05-07 21:55 35.68687 51.31875 3849 ft 37 kts 290°
2026-05-07 21:55 35.68765 51.31605 3866 ft 30 kts 289°
2026-05-07 21:55 35.68909 51.31479 3883 ft 28 kts
2026-05-07 21:56 35.69099 51.31487 3898 ft 26 kts
2026-05-07 21:56 35.69275 51.31505 3912 ft 25 kts 28°
2026-05-07 21:56 35.69280 51.31670 3910 ft 20 kts 105°
2026-05-07 21:56 35.69222 51.31819 3903 ft 20 kts 148°
2026-05-07 21:57 35.69080 51.31919 3890 ft 26 kts 145°
2026-05-07 21:57 35.68938 51.32073 3875 ft 29 kts 113°
2026-05-07 21:57 35.68900 51.32305 3871 ft 28 kts 64°
2026-05-07 21:57 35.68925 51.32521 3866 ft 26 kts 108°
2026-05-07 21:58 35.68897 51.32670 3859 ft 8 kts 41°
2026-05-07 21:58 35.68898 51.32671 3864 ft 0 kts 29°
2026-05-07 21:58 35.68909 51.32676 3864 ft 3 kts 21°
2026-05-07 21:58 35.68924 51.32683 3860 ft 0 kts 19°